User: anonymous
Location: Bridgewater Hill Observatory
(43.5992°N, 72.6989°W)
Time: 04:35:10
(UTC-04:00)
Language:

Cosmos 1452 Rocket - Orbit

View from above orbital plane
View from above orbital plane
View from above satellite
View from above satellite

Ground track
Ground track

The orbit data is extracted from the following two-line orbital elements,

1 13992U 83031B   14212.79167984  .00000128  00000-0  53153-4 0  4694
2 13992 074.0544 135.1607 0004916 004.7696 026.3221 14.35756836637892
Epoch (UTC): 31 July 2014 19:00:01
Eccentricity: 0.0004916
inclination: 74.0544°
perigee height: 769 km
apogee height: 776 km
right ascension of ascending node: 135.1607°
argument of perigee: 4.7696°
revolutions per day: 14.35756836
mean anomaly at epoch: 26.3221°
orbit number at epoch: 63789

The dashed part of the orbit path shows where the satellite is in the earth's shadow,  

DLR